Time,TemperatureF,DewpointF,PressureIn,WindDirection,WindDirectionDegrees,WindSpeedMPH,WindSpeedGustMPH,Humidity,HourlyPrecipIn,Conditions,Clouds,dailyrainin,SoftwareType,DateUTC
2013-03-07 00:00:00,29.2,17.0,30.13,NE,36,8.0,17.0,60,0.00,RA,,0.00,WeatherDisplay:10.37,2013-03-07 05:00:00,
2013-03-07 00:02:00,29.4,17.2,30.13,SSE,158,9.2,9.2,60,0.00,RA,,0.00,WeatherDisplay:10.37,2013-03-07 05:02:00,
2013-03-07 00:04:00,29.5,17.3,30.13,South,180,5.9,5.9,60,0.00,RA,,0.00,WeatherDisplay:10.37,2013-03-07 05:04:00,
2013-03-07 00:09:00,29.8,17.6,30.13,SW,225,5.8,5.8,60,0.00,RA,,0.00,WeatherDisplay:10.37,2013-03-07 05:09:00,
2013-03-07 00:15:00,29.1,17.0,30.13,East,90,6.9,6.9,60,0.00,OVC,,0.00,WeatherDisplay:10.37,2013-03-07 05:15:00,
2013-03-07 00:20:00,29.3,17.1,30.13,South,180,3.5,3.5,60,0.00,OVC,,0.00,WeatherDisplay:10.37,2013-03-07 05:20:00,
2013-03-07 00:25:00,29.4,17.2,30.13,West,270,1.2,1.2,60,0.00,OVC,,0.00,WeatherDisplay:10.37,2013-03-07 05:25:00,
2013-03-07 00:30:00,29.1,16.9,30.13,NE,49,3.0,11.0,60,0.00,OVC,,0.00,WeatherDisplay:10.37,2013-03-07 05:30:00,
2013-03-07 00:35:00,29.2,17.0,30.13,NW,315,4.6,4.6,60,0.00,OVC,,0.00,WeatherDisplay:10.37,2013-03-07 05:35:00,
2013-03-07 00:40:00,29.1,17.0,30.13,WNW,292,6.0,6.0,60,0.00,OVC,,0.00,WeatherDisplay:10.37,2013-03-07 05:40:00,
2013-03-07 00:45:00,28.7,16.5,30.13,WNW,292,11.5,11.5,60,0.00,OVC,,0.00,WeatherDisplay:10.37,2013-03-07 05:45:00,
2013-03-07 00:50:00,29.0,16.9,30.13,North,360,13.8,13.8,60,0.00,OVC,,0.00,WeatherDisplay:10.37,2013-03-07 05:50:00,
2013-03-07 00:55:00,29.4,17.2,30.13,SSW,202,16.1,16.1,60,0.00,OVC,,0.00,WeatherDisplay:10.37,2013-03-07 05:55:00,
2013-03-07 01:00:00,29.5,17.3,30.13,NW,315,4.6,4.6,60,0.00,OVC,,0.00,WeatherDisplay:10.37,2013-03-07 06:00:00,
2013-03-07 01:05:00,29.5,17.3,30.13,North,360,4.6,4.6,60,0.00,OVC,,0.00,WeatherDisplay:10.37,2013-03-07 06:05:00,
2013-03-07 01:10:00,29.4,17.2,30.13,NNW,338,5.8,5.8,60,0.00,OVC,,0.00,WeatherDisplay:10.37,2013-03-07 06:10:00,
2013-03-07 01:15:00,29.6,17.4,30.13,WNW,292,1.4,1.4,60,0.00,OVC,,0.00,WeatherDisplay:10.37,2013-03-07 06:15:00,
2013-03-07 01:20:00,29.8,17.5,30.13,NW,315,5.6,5.6,60,0.00,OVC,,0.00,WeatherDisplay:10.37,2013-03-07 06:20:00,
2013-03-07 01:25:00,29.9,17.7,30.13,WNW,292,3.5,3.5,60,0.00,OVC,,0.00,WeatherDisplay:10.37,2013-03-07 06:25:00,
2013-03-07 01:30:00,30.1,17.9,30.13,SSE,158,12.8,12.8,60,0.00,OVC,,0.00,WeatherDisplay:10.37,2013-03-07 06:30:00,
2013-03-07 01:35:00,30.5,18.2,30.13,WNW,292,8.1,8.1,60,0.00,OVC,,0.00,WeatherDisplay:10.37,2013-03-07 06:35:00,
2013-03-07 01:40:00,30.3,18.0,30.13,NW,315,5.8,5.8,60,0.00,OVC,,0.00,WeatherDisplay:10.37,2013-03-07 06:40:00,
2013-03-07 01:45:00,29.4,17.2,30.13,NNE,22,8.1,8.1,60,0.00,OVC,,0.00,WeatherDisplay:10.37,2013-03-07 06:45:00,
2013-03-07 01:50:00,29.7,17.5,30.13,West,270,1.2,0.0,60,0.00,OVC,,0.00,WeatherDisplay:10.37,2013-03-07 06:50:00,
2013-03-07 01:55:00,29.5,17.3,30.13,ESE,112,6.0,6.0,60,0.00,OVC,,0.00,WeatherDisplay:10.37,2013-03-07 06:55:00,
2013-03-07 02:00:00,29.6,17.4,30.13,North,360,5.9,5.9,60,0.00,OVC,,0.00,WeatherDisplay:10.37,2013-03-07 07:00:00,
2013-03-07 02:05:00,29.2,17.1,30.14,NNE,22,5.8,5.8,60,0.00,OVC,,0.00,WeatherDisplay:10.37,2013-03-07 07:05:00,
2013-03-07 02:10:00,29.1,16.9,30.14,NNW,338,8.1,8.1,60,0.00,OVC,,0.00,WeatherDisplay:10.37,2013-03-07 07:10:00,
2013-03-07 02:15:00,28.7,16.6,30.14,SW,225,11.5,11.5,60,0.00,OVC,,0.00,WeatherDisplay:10.37,2013-03-07 07:15:00,
2013-03-07 02:20:00,28.7,16.6,30.14,SE,135,4.6,4.6,60,0.00,OVC,,0.00,WeatherDisplay:10.37,2013-03-07 07:20:00,
2013-03-07 02:25:00,29.2,17.0,30.14,SSE,158,16.1,16.1,60,0.00,OVC,,0.00,WeatherDisplay:10.37,2013-03-07 07:25:00,
2013-03-07 02:30:00,29.8,17.5,30.14,North,360,9.4,9.4,60,0.00,OVC,,0.00,WeatherDisplay:10.37,2013-03-07 07:30:00,
2013-03-07 02:35:00,29.4,17.2,30.14,South,180,10.4,10.4,60,0.00,OVC,,0.00,WeatherDisplay:10.37,2013-03-07 07:35:00,
2013-03-07 02:40:00,29.7,17.5,30.14,SW,225,6.9,6.9,60,0.00,OVC,,0.00,WeatherDisplay:10.37,2013-03-07 07:40:00,
2013-03-07 02:45:00,29.0,16.9,30.14,SE,135,6.9,6.9,60,0.00,OVC,,0.00,WeatherDisplay:10.37,2013-03-07 07:45:00,
2013-03-07 02:51:00,29.0,16.9,30.14,WSW,248,5.8,5.8,60,0.00,OVC,,0.00,WeatherDisplay:10.37,2013-03-07 07:51:00,
2013-03-07 02:56:00,28.7,16.6,30.14,SE,135,3.5,3.5,60,0.00,OVC,,0.00,WeatherDisplay:10.37,2013-03-07 07:56:00,
2013-03-07 03:01:00,28.8,16.6,30.13,WSW,248,3.5,3.5,60,0.00,OVC,,0.00,WeatherDisplay:10.37,2013-03-07 08:01:00,
2013-03-07 03:07:00,28.7,16.5,30.13,SW,225,3.5,3.5,60,0.00,OVC,,0.00,WeatherDisplay:10.37,2013-03-07 08:07:00,
2013-03-07 03:12:00,28.8,16.6,30.13,SSE,158,6.9,6.9,60,0.00,OVC,,0.00,WeatherDisplay:10.37,2013-03-07 08:12:00,
2013-03-07 03:18:00,28.6,16.4,30.13,WSW,248,6.9,6.9,60,0.00,OVC,,0.00,WeatherDisplay:10.37,2013-03-07 08:18:00,
2013-03-07 03:23:00,28.7,16.5,30.13,SW,225,3.5,3.5,60,0.00,OVC,,0.00,WeatherDisplay:10.37,2013-03-07 08:23:00,
2013-03-07 03:28:00,28.8,16.6,30.13,WNW,292,7.3,7.3,60,0.00,OVC,,0.00,WeatherDisplay:10.37,2013-03-07 08:28:00,
2013-03-07 03:33:00,28.8,16.6,30.13,SW,225,4.6,4.6,60,0.00,OVC,,0.00,WeatherDisplay:10.37,2013-03-07 08:33:00,
2013-03-07 03:38:00,28.6,16.4,30.13,NW,315,6.9,6.9,60,0.00,OVC,,0.00,WeatherDisplay:10.37,2013-03-07 08:38:00,
2013-03-07 03:43:00,28.5,16.3,30.13,WNW,292,6.9,6.9,60,0.00,OVC,,0.00,WeatherDisplay:10.37,2013-03-07 08:43:00,
2013-03-07 03:48:00,28.4,16.3,30.13,West,270,3.5,3.5,60,0.00,OVC,,0.00,WeatherDisplay:10.37,2013-03-07 08:48:00,
2013-03-07 03:53:00,28.7,16.6,30.13,WNW,292,5.8,5.8,60,0.00,OVC,,0.00,WeatherDisplay:10.37,2013-03-07 08:53:00,
2013-03-07 03:58:00,28.5,16.4,30.13,NW,315,5.8,5.8,60,0.00,OVC,,0.00,WeatherDisplay:10.37,2013-03-07 08:58:00,
2013-03-07 04:03:00,28.3,16.2,30.11,North,360,4.6,4.6,60,0.00,OVC,,0.00,WeatherDisplay:10.37,2013-03-07 09:03:00,
2013-03-07 04:08:00,28.9,16.7,30.11,West,270,4.6,4.6,60,0.00,OVC,,0.00,WeatherDisplay:10.37,2013-03-07 09:08:00,
2013-03-07 04:13:00,28.7,16.5,30.11,NW,315,6.9,6.9,60,0.00,OVC,,0.00,WeatherDisplay:10.37,2013-03-07 09:13:00,
2013-03-07 04:18:00,28.7,16.6,30.11,NW,315,8.1,8.1,60,0.00,OVC,,0.00,WeatherDisplay:10.37,2013-03-07 09:18:00,
2013-03-07 04:23:00,28.0,15.8,30.11,WNW,292,9.1,9.1,60,0.00,OVC,,0.00,WeatherDisplay:10.37,2013-03-07 09:23:00,
2013-03-07 04:29:00,27.8,15.7,30.11,WNW,292,6.9,6.9,60,0.00,OVC,,0.00,WeatherDisplay:10.37,2013-03-07 09:29:00,
2013-03-07 04:34:00,27.6,15.5,30.11,North,360,10.4,10.4,60,0.00,OVC,,0.00,WeatherDisplay:10.37,2013-03-07 09:34:00,
2013-03-07 04:39:00,27.5,15.4,30.11,NE,45,12.7,12.7,60,0.00,OVC,,0.00,WeatherDisplay:10.37,2013-03-07 09:39:00,
2013-03-07 04:45:00,27.7,15.6,30.11,NW,315,4.6,4.6,60,0.00,OVC,,0.00,WeatherDisplay:10.37,2013-03-07 09:45:00,
2013-03-07 04:50:00,27.7,15.6,30.11,East,90,10.4,10.4,60,0.00,OVC,,0.00,WeatherDisplay:10.37,2013-03-07 09:50:00,
2013-03-07 04:55:00,27.8,15.7,30.11,NW,315,10.4,10.4,60,0.00,OVC,,0.00,WeatherDisplay:10.37,2013-03-07 09:55:00,
2013-03-07 05:00:00,27.6,15.5,30.11,North,360,12.3,12.3,60,0.00,OVC,,0.00,WeatherDisplay:10.37,2013-03-07 10:00:00,
2013-03-07 05:06:00,27.8,15.7,30.12,NNW,338,9.2,9.2,60,0.00,OVC,,0.00,WeatherDisplay:10.37,2013-03-07 10:06:00,
2013-03-07 05:11:00,28.0,15.9,30.12,WNW,292,8.1,8.1,60,0.00,OVC,,0.00,WeatherDisplay:10.37,2013-03-07 10:11:00,
2013-03-07 05:16:00,28.0,15.8,30.12,North,360,5.8,5.8,60,0.00,OVC,,0.00,WeatherDisplay:10.37,2013-03-07 10:16:00,
2013-03-07 05:22:00,27.6,15.5,30.12,NW,315,6.7,6.7,60,0.00,OVC,,0.00,WeatherDisplay:10.37,2013-03-07 10:22:00,
2013-03-07 05:28:00,27.6,15.5,30.12,WNW,292,5.9,5.9,60,0.00,OVC,,0.00,WeatherDisplay:10.37,2013-03-07 10:28:00,
2013-03-07 05:33:00,27.7,15.6,30.12,South,180,4.6,4.6,60,0.00,OVC,,0.00,WeatherDisplay:10.37,2013-03-07 10:33:00,
2013-03-07 05:38:00,28.0,15.8,30.12,South,180,5.8,5.8,60,0.00,OVC,,0.00,WeatherDisplay:10.37,2013-03-07 10:38:00,
2013-03-07 05:43:00,28.2,16.1,30.12,NW,315,16.1,16.1,60,0.00,OVC,,0.00,WeatherDisplay:10.37,2013-03-07 10:43:00,
2013-03-07 05:48:00,27.7,15.6,30.12,NNE,22,10.4,10.4,60,0.00,OVC,,0.00,WeatherDisplay:10.37,2013-03-07 10:48:00,
2013-03-07 05:53:00,27.8,15.7,30.12,SSW,202,4.6,4.6,60,0.00,OVC,,0.00,WeatherDisplay:10.37,2013-03-07 10:53:00,
2013-03-07 05:58:00,28.0,15.8,30.12,North,360,8.1,8.1,60,0.00,OVC,,0.00,WeatherDisplay:10.37,2013-03-07 10:58:00,
2013-03-07 06:04:00,28.1,16.0,30.12,NW,315,11.7,11.7,60,0.00,OVC,,0.00,WeatherDisplay:10.37,2013-03-07 11:04:00,
2013-03-07 06:09:00,27.7,15.6,30.12,NNE,22,9.2,9.2,60,0.00,OVC,,0.00,WeatherDisplay:10.37,2013-03-07 11:09:00,
2013-03-07 06:15:00,27.8,15.7,30.12,WSW,248,4.6,4.6,60,0.00,OVC,,0.00,WeatherDisplay:10.37,2013-03-07 11:15:00,
2013-03-07 06:20:00,27.8,15.7,30.12,East,90,6.9,6.9,60,0.00,OVC,,0.00,WeatherDisplay:10.37,2013-03-07 11:20:00,
2013-03-07 06:26:00,28.2,16.1,30.12,SW,225,0.0,0.0,60,0.00,OVC,,0.00,WeatherDisplay:10.37,2013-03-07 11:26:00,
2013-03-07 06:32:00,28.2,16.1,30.12,WNW,292,9.2,9.2,60,0.00,OVC,,0.00,WeatherDisplay:10.37,2013-03-07 11:32:00,
2013-03-07 06:38:00,28.1,16.0,30.12,SSW,202,4.6,4.6,60,0.00,OVC,,0.00,WeatherDisplay:10.37,2013-03-07 11:38:00,
2013-03-07 06:43:00,27.8,15.7,30.12,NW,315,6.9,6.9,60,0.00,OVC,,0.00,WeatherDisplay:10.37,2013-03-07 11:43:00,
2013-03-07 06:49:00,27.8,15.7,30.12,WNW,292,4.5,4.5,60,0.00,OVC,,0.00,WeatherDisplay:10.37,2013-03-07 11:49:00,
2013-03-07 06:54:00,27.9,15.8,30.12,North,360,9.2,9.2,60,0.00,OVC,,0.00,WeatherDisplay:10.37,2013-03-07 11:54:00,
2013-03-07 07:00:00,27.7,15.6,30.12,NW,312,6.0,12.0,60,0.00,OVC,,0.00,WeatherDisplay:10.37,2013-03-07 12:00:00,
2013-03-07 07:05:00,27.5,15.4,30.12,NW,315,6.9,6.9,60,0.00,OVC,,0.00,WeatherDisplay:10.37,2013-03-07 12:05:00,
2013-03-07 07:10:00,27.6,15.5,30.12,NW,315,4.6,4.6,60,0.00,OVC,,0.00,WeatherDisplay:10.37,2013-03-07 12:10:00,
2013-03-07 07:15:00,27.9,15.8,30.12,NW,315,6.9,6.9,60,0.00,OVC,,0.00,WeatherDisplay:10.37,2013-03-07 12:15:00,
2013-03-07 07:21:00,28.2,16.1,30.12,NW,315,9.2,9.2,60,0.00,OVC,,0.00,WeatherDisplay:10.37,2013-03-07 12:21:00,
2013-03-07 07:26:00,28.6,16.4,30.12,NW,315,12.0,12.0,60,0.00,OVC,,0.00,WeatherDisplay:10.37,2013-03-07 12:26:00,
2013-03-07 07:32:00,28.1,16.0,30.12,NNW,338,10.4,10.4,60,0.00,OVC,,0.00,WeatherDisplay:10.37,2013-03-07 12:32:00,
2013-03-07 07:38:00,28.5,16.4,30.12,NW,315,12.4,12.4,60,0.00,OVC,,0.00,WeatherDisplay:10.37,2013-03-07 12:38:00,
2013-03-07 07:43:00,28.5,16.3,30.12,WNW,292,10.4,10.4,60,0.00,OVC,,0.00,WeatherDisplay:10.37,2013-03-07 12:43:00,
2013-03-07 07:48:00,28.6,16.4,30.12,NNE,22,6.9,6.9,60,0.00,OVC,,0.00,WeatherDisplay:10.37,2013-03-07 12:48:00,
2013-03-07 07:53:00,29.0,16.9,30.12,East,90,5.8,5.8,60,0.00,OVC,,0.00,WeatherDisplay:10.37,2013-03-07 12:53:00,
2013-03-07 07:58:00,29.4,17.2,30.12,SSW,202,6.9,6.9,60,0.00,OVC,,0.00,WeatherDisplay:10.37,2013-03-07 12:58:00,
2013-03-07 08:03:00,30.2,18.0,30.12,NW,315,9.7,9.7,60,0.00,OVC,,0.00,WeatherDisplay:10.37,2013-03-07 13:03:00,
2013-03-07 08:08:00,30.4,18.1,30.12,South,180,1.6,1.6,60,0.00,OVC,,0.00,WeatherDisplay:10.37,2013-03-07 13:08:00,
2013-03-07 08:13:00,31.2,18.9,30.12,NW,315,9.2,9.2,60,0.00,OVC,,0.00,WeatherDisplay:10.37,2013-03-07 13:13:00,
2013-03-07 08:18:00,30.9,18.6,30.12,SSW,202,4.6,4.6,60,0.00,OVC,,0.00,WeatherDisplay:10.37,2013-03-07 13:18:00,
2013-03-07 08:23:00,31.0,18.8,30.12,NW,315,13.1,13.1,60,0.00,OVC,,0.00,WeatherDisplay:10.37,2013-03-07 13:23:00,
2013-03-07 08:28:00,30.9,18.7,30.12,NNE,22,9.2,9.2,60,0.00,OVC,,0.00,WeatherDisplay:10.37,2013-03-07 13:28:00,
2013-03-07 08:33:00,31.1,18.8,30.12,NE,45,10.4,10.4,60,0.00,OVC,,0.00,WeatherDisplay:10.37,2013-03-07 13:33:00,
2013-03-07 08:38:00,31.7,19.4,30.12,West,270,5.8,5.8,60,0.00,OVC,,0.00,WeatherDisplay:10.37,2013-03-07 13:38:00,
2013-03-07 08:43:00,31.4,19.1,30.12,North,360,6.0,6.0,60,0.00,OVC,,0.00,WeatherDisplay:10.37,2013-03-07 13:43:00,
2013-03-07 08:48:00,31.4,19.1,30.12,NNW,338,10.4,10.4,60,0.00,OVC,,0.00,WeatherDisplay:10.37,2013-03-07 13:48:00,
2013-03-07 08:53:00,32.3,19.9,30.12,NE,45,5.9,5.9,60,0.00,OVC,,0.00,WeatherDisplay:10.37,2013-03-07 13:53:00,
2013-03-07 08:59:00,31.8,19.5,30.12,NW,315,14.1,14.1,60,0.00,OVC,,0.00,WeatherDisplay:10.37,2013-03-07 13:59:00,
2013-03-07 09:04:00,30.9,18.6,30.12,NNW,338,12.2,12.2,60,0.00,OVC,,0.00,WeatherDisplay:10.37,2013-03-07 14:04:00,
2013-03-07 09:09:00,31.2,18.9,30.12,NNE,22,11.5,11.5,60,0.00,OVC,,0.00,WeatherDisplay:10.37,2013-03-07 14:09:00,
2013-03-07 09:15:00,31.9,19.6,30.12,East,90,6.9,6.9,60,0.00,OVC,,0.00,WeatherDisplay:10.37,2013-03-07 14:15:00,
2013-03-07 09:21:00,33.0,20.6,30.12,NW,315,5.8,5.8,60,0.00,OVC,,0.00,WeatherDisplay:10.37,2013-03-07 14:21:00,
2013-03-07 09:26:00,33.8,21.4,30.12,East,90,8.1,8.1,60,0.00,OVC,,0.00,WeatherDisplay:10.37,2013-03-07 14:26:00,
2013-03-07 09:31:00,34.9,-38.6,30.12,WNW,292,8.1,8.1,3,0.00,OVC,,0.00,WeatherDisplay:10.37,2013-03-07 14:31:00,
2013-03-07 09:36:00,35.5,24.2,30.12,West,270,3.5,3.5,63,0.00,OVC,,0.00,WeatherDisplay:10.37,2013-03-07 14:36:00,
2013-03-07 09:42:00,35.0,23.6,30.12,NE,45,15.0,15.0,63,0.00,OVC,,0.00,WeatherDisplay:10.37,2013-03-07 14:42:00,
2013-03-07 09:47:00,35.0,23.7,30.12,North,360,9.2,9.2,63,0.00,OVC,,0.00,WeatherDisplay:10.37,2013-03-07 14:47:00,
2013-03-07 09:53:00,34.9,23.6,30.12,NNW,338,12.7,12.7,63,0.00,OVC,,0.00,WeatherDisplay:10.37,2013-03-07 14:53:00,
2013-03-07 09:58:00,34.9,23.6,30.12,NNE,22,8.1,8.1,63,0.00,OVC,,0.00,WeatherDisplay:10.37,2013-03-07 14:58:00,
2013-03-07 10:04:00,35.0,22.1,30.12,NNE,22,8.0,8.0,59,0.00,OVC,,0.00,WeatherDisplay:10.37,2013-03-07 15:04:00,
2013-03-07 10:09:00,33.6,20.8,30.12,North,360,13.8,13.8,59,0.00,OVC,,0.00,WeatherDisplay:10.37,2013-03-07 15:09:00,
2013-03-07 10:14:00,34.0,21.1,30.12,NNW,338,13.8,13.8,59,0.00,OVC,,0.00,WeatherDisplay:10.37,2013-03-07 15:14:00,
2013-03-07 10:19:00,33.8,21.0,30.12,WNW,292,11.3,11.3,59,0.00,OVC,,0.00,WeatherDisplay:10.37,2013-03-07 15:19:00,
2013-03-07 10:24:00,32.9,20.1,30.12,North,360,15.0,15.0,59,0.00,OVC,,0.00,WeatherDisplay:10.37,2013-03-07 15:24:00,
2013-03-07 10:29:00,33.1,20.3,30.12,NNW,338,10.4,10.4,59,0.00,OVC,,0.00,WeatherDisplay:10.37,2013-03-07 15:29:00,
2013-03-07 10:34:00,33.2,20.4,30.12,ENE,68,13.8,13.8,59,0.00,OVC,,0.00,WeatherDisplay:10.37,2013-03-07 15:34:00,
2013-03-07 10:40:00,35.0,22.1,30.12,NNW,338,12.7,12.7,59,0.00,OVC,,0.00,WeatherDisplay:10.37,2013-03-07 15:40:00,
2013-03-07 10:46:00,35.3,22.4,30.12,North,360,8.1,8.1,59,0.00,OVC,,0.00,WeatherDisplay:10.37,2013-03-07 15:46:00,
2013-03-07 10:51:00,36.4,23.4,30.12,North,360,3.5,3.5,59,0.00,OVC,,0.00,WeatherDisplay:10.37,2013-03-07 15:51:00,
2013-03-07 10:57:00,35.8,22.9,30.12,North,360,11.1,11.1,59,0.00,OVC,,0.00,WeatherDisplay:10.37,2013-03-07 15:57:00,
2013-03-07 11:02:00,35.6,21.0,30.11,NNE,22,15.0,15.0,55,0.00,OVC,,0.00,WeatherDisplay:10.37,2013-03-07 16:02:00,
2013-03-07 11:07:00,35.2,20.6,30.11,North,360,9.2,9.2,55,0.00,OVC,,0.00,WeatherDisplay:10.37,2013-03-07 16:07:00,
2013-03-07 11:12:00,34.8,20.3,30.11,NW,315,10.4,10.4,55,0.00,OVC,,0.00,WeatherDisplay:10.37,2013-03-07 16:12:00,
2013-03-07 11:18:00,36.2,21.6,30.11,WSW,248,9.2,9.2,55,0.00,OVC,,0.00,WeatherDisplay:10.37,2013-03-07 16:18:00,
2013-03-07 11:23:00,36.8,22.2,30.11,NW,315,6.9,6.9,55,0.00,OVC,,0.00,WeatherDisplay:10.37,2013-03-07 16:23:00,
2013-03-07 11:28:00,36.2,21.6,30.12,ENE,68,6.9,6.9,55,0.00,OVC,,0.00,WeatherDisplay:10.37,2013-03-07 16:28:00,
2013-03-07 11:33:00,36.0,21.4,30.12,NW,315,6.9,6.9,55,0.00,OVC,,0.00,WeatherDisplay:10.37,2013-03-07 16:33:00,
2013-03-07 11:38:00,36.9,22.2,30.12,East,90,5.9,5.9,55,0.00,OVC,,0.00,WeatherDisplay:10.37,2013-03-07 16:38:00,
2013-03-07 11:43:00,37.1,22.4,30.12,NNE,22,8.1,8.1,55,0.00,OVC,,0.00,WeatherDisplay:10.37,2013-03-07 16:43:00,
2013-03-07 11:48:00,37.2,22.5,30.12,NNE,22,10.4,10.4,55,0.00,OVC,,0.00,WeatherDisplay:10.37,2013-03-07 16:48:00,
2013-03-07 11:53:00,35.8,21.2,30.12,NNW,338,9.2,9.2,55,0.00,OVC,,0.00,WeatherDisplay:10.37,2013-03-07 16:53:00,
2013-03-07 11:58:00,36.3,21.7,30.12,NW,315,9.2,9.2,55,0.00,OVC,,0.00,WeatherDisplay:10.37,2013-03-07 16:58:00,
2013-03-07 12:03:00,36.3,23.4,30.12,East,90,10.4,10.4,59,0.00,OVC,,0.00,WeatherDisplay:10.37,2013-03-07 17:03:00,
2013-03-07 12:08:00,37.3,24.3,30.12,NNE,22,10.4,10.4,59,0.00,OVC,,0.00,WeatherDisplay:10.37,2013-03-07 17:08:00,
2013-03-07 12:13:00,37.2,24.2,30.12,NW,315,9.2,9.2,59,0.00,OVC,,0.00,WeatherDisplay:10.37,2013-03-07 17:13:00,
2013-03-07 12:19:00,36.8,23.8,30.12,ENE,68,10.4,10.4,59,0.00,OVC,,0.00,WeatherDisplay:10.37,2013-03-07 17:19:00,
2013-03-07 12:24:00,37.0,23.9,30.12,NW,315,12.3,12.3,59,0.00,OVC,,0.00,WeatherDisplay:10.37,2013-03-07 17:24:00,
2013-03-07 12:30:00,36.8,23.8,30.12,North,350,3.0,19.0,59,0.00,OVC,,0.00,WeatherDisplay:10.37,2013-03-07 17:30:00,
2013-03-07 12:35:00,36.7,23.7,30.12,NW,315,9.2,9.2,59,0.00,OVC,,0.00,WeatherDisplay:10.37,2013-03-07 17:35:00,
2013-03-07 12:40:00,37.5,24.4,30.12,NE,45,10.4,10.4,59,0.00,OVC,,0.00,WeatherDisplay:10.37,2013-03-07 17:40:00,
2013-03-07 12:45:00,38.1,25.0,30.12,North,360,10.4,10.4,59,0.00,OVC,,0.00,WeatherDisplay:10.37,2013-03-07 17:45:00,
2013-03-07 12:51:00,36.6,23.6,30.12,NE,45,13.8,13.8,59,0.00,OVC,,0.00,WeatherDisplay:10.37,2013-03-07 17:51:00,
2013-03-07 12:56:00,37.3,24.3,30.12,NW,315,10.4,10.4,59,0.00,OVC,,0.00,WeatherDisplay:10.37,2013-03-07 17:56:00,
2013-03-07 13:01:00,38.4,25.3,30.10,NW,315,11.2,11.2,59,0.00,OVC,,0.00,WeatherDisplay:10.37,2013-03-07 18:01:00,
2013-03-07 13:06:00,38.2,23.4,30.10,NW,315,15.0,15.0,55,0.00,OVC,,0.00,WeatherDisplay:10.37,2013-03-07 18:06:00,
2013-03-07 13:11:00,37.3,22.6,30.10,North,360,16.1,16.1,55,0.00,OVC,,0.00,WeatherDisplay:10.37,2013-03-07 18:11:00,
2013-03-07 13:16:00,37.7,23.0,30.10,East,90,9.2,9.2,55,0.00,OVC,,0.00,WeatherDisplay:10.37,2013-03-07 18:16:00,
2013-03-07 13:21:00,36.9,22.2,30.10,ENE,68,20.7,20.7,55,0.00,OVC,,0.00,WeatherDisplay:10.37,2013-03-07 18:21:00,
2013-03-07 13:26:00,37.7,23.0,30.10,ENE,68,9.2,9.2,55,0.00,OVC,,0.00,WeatherDisplay:10.37,2013-03-07 18:26:00,
2013-03-07 13:31:00,38.2,23.4,30.10,North,360,10.4,10.4,55,0.00,OVC,,0.00,WeatherDisplay:10.37,2013-03-07 18:31:00,
2013-03-07 13:36:00,38.4,23.6,30.10,ENE,68,12.7,12.7,55,0.00,OVC,,0.00,WeatherDisplay:10.37,2013-03-07 18:36:00,
2013-03-07 13:41:00,39.0,24.2,30.10,ESE,112,11.5,11.5,55,0.00,OVC,,0.00,WeatherDisplay:10.37,2013-03-07 18:41:00,
2013-03-07 13:46:00,40.0,25.2,30.10,East,90,10.4,10.4,55,0.00,OVC,,0.00,WeatherDisplay:10.37,2013-03-07 18:46:00,
2013-03-07 13:51:00,39.7,24.8,30.10,NW,315,11.5,11.5,55,0.00,OVC,,0.00,WeatherDisplay:10.37,2013-03-07 18:51:00,
2013-03-07 13:57:00,39.0,24.2,30.10,West,270,11.5,11.5,55,0.00,OVC,,0.00,WeatherDisplay:10.37,2013-03-07 18:57:00,
2013-03-07 14:02:00,37.7,23.0,30.09,NW,315,10.8,10.8,55,0.00,OVC,,0.00,WeatherDisplay:10.37,2013-03-07 19:02:00,
2013-03-07 14:07:00,37.0,22.3,30.09,NW,315,11.5,11.5,55,0.00,OVC,,0.00,WeatherDisplay:10.37,2013-03-07 19:07:00,
2013-03-07 14:13:00,36.2,21.6,30.09,North,360,11.5,11.5,55,0.00,OVC,,0.00,WeatherDisplay:10.37,2013-03-07 19:13:00,
2013-03-07 14:18:00,35.5,20.9,30.09,NW,315,15.0,15.0,55,0.00,OVC,,0.00,WeatherDisplay:10.37,2013-03-07 19:18:00,
2013-03-07 14:23:00,34.7,20.2,30.09,NW,315,15.0,15.0,55,0.00,OVC,,0.00,WeatherDisplay:10.37,2013-03-07 19:23:00,
2013-03-07 14:30:00,34.3,19.8,30.09,NW,314,12.0,18.0,55,0.00,OVC,,0.00,WeatherDisplay:10.37,2013-03-07 19:30:00,
2013-03-07 14:35:00,34.0,19.5,30.09,NNW,338,17.3,17.3,55,0.00,OVC,,0.00,WeatherDisplay:10.37,2013-03-07 19:35:00,
2013-03-07 14:40:00,34.3,19.8,30.09,NW,315,12.7,12.7,55,0.00,OVC,,0.00,WeatherDisplay:10.37,2013-03-07 19:40:00,
2013-03-07 14:45:00,34.8,20.3,30.09,NW,315,12.7,12.7,55,0.00,OVC,,0.00,WeatherDisplay:10.37,2013-03-07 19:45:00,
2013-03-07 14:50:00,34.4,19.8,30.09,NW,315,14.8,14.8,55,0.00,OVC,,0.00,WeatherDisplay:10.37,2013-03-07 19:50:00,
2013-03-07 14:55:00,34.5,20.0,30.09,NNE,22,9.2,9.2,55,0.00,OVC,,0.00,WeatherDisplay:10.37,2013-03-07 19:55:00,
2013-03-07 15:00:00,33.9,19.4,30.09,NW,315,13.8,13.8,55,0.00,OVC,,0.00,WeatherDisplay:10.37,2013-03-07 20:00:00,
2013-03-07 15:05:00,33.9,23.0,30.09,NNE,22,12.7,12.7,64,0.00,OVC,,0.00,WeatherDisplay:10.37,2013-03-07 20:05:00,
2013-03-07 15:10:00,33.6,22.7,30.09,NW,315,13.1,13.1,64,0.00,OVC,,0.00,WeatherDisplay:10.37,2013-03-07 20:10:00,
2013-03-07 15:15:00,32.9,22.0,30.09,NW,315,10.5,10.5,64,0.00,OVC,,0.00,WeatherDisplay:10.37,2013-03-07 20:15:00,
2013-03-07 15:20:00,32.2,21.0,30.09,NW,315,10.4,10.4,63,0.00,OVC,,0.00,WeatherDisplay:10.37,2013-03-07 20:20:00,
2013-03-07 15:25:00,32.1,20.9,30.09,NW,315,12.7,12.7,63,0.00,OVC,,0.00,WeatherDisplay:10.37,2013-03-07 20:25:00,
2013-03-07 15:30:00,32.3,21.1,30.09,NW,315,15.0,15.0,63,0.00,OVC,,0.00,WeatherDisplay:10.37,2013-03-07 20:30:00,
2013-03-07 15:35:00,31.7,20.6,30.09,NNW,338,10.4,10.4,63,0.00,OVC,,0.00,WeatherDisplay:10.37,2013-03-07 20:35:00,
2013-03-07 15:40:00,31.9,20.8,30.09,NW,315,15.0,15.0,63,0.00,OVC,,0.00,WeatherDisplay:10.37,2013-03-07 20:40:00,
2013-03-07 15:45:00,32.1,20.9,30.09,NNW,338,11.5,11.5,63,0.00,OVC,,0.00,WeatherDisplay:10.37,2013-03-07 20:45:00,
2013-03-07 15:50:00,31.9,20.7,30.09,NW,315,11.5,11.5,63,0.00,OVC,,0.00,WeatherDisplay:10.37,2013-03-07 20:50:00,
2013-03-07 15:55:00,31.4,20.3,30.09,WNW,292,9.2,9.2,63,0.00,OVC,,0.00,WeatherDisplay:10.37,2013-03-07 20:55:00,
2013-03-07 16:00:00,31.4,20.2,30.09,North,360,11.5,11.5,63,0.00,OVC,,0.00,WeatherDisplay:10.37,2013-03-07 21:00:00,
2013-03-07 16:05:00,31.2,20.0,30.11,North,360,10.3,10.3,63,0.00,OVC,,0.00,WeatherDisplay:10.37,2013-03-07 21:05:00,
2013-03-07 16:10:00,31.1,20.0,30.11,NW,315,12.7,12.7,63,0.00,OVC,,0.00,WeatherDisplay:10.37,2013-03-07 21:10:00,
2013-03-07 16:16:00,30.4,19.3,30.11,NNW,338,11.5,11.5,63,0.00,OVC,,0.00,WeatherDisplay:10.37,2013-03-07 21:16:00,
2013-03-07 16:21:00,30.3,19.2,30.11,NW,315,19.4,19.4,63,0.00,OVC,,0.00,WeatherDisplay:10.37,2013-03-07 21:21:00,
2013-03-07 16:26:00,29.9,18.8,30.11,WNW,292,11.5,11.5,63,0.00,OVC,,0.00,WeatherDisplay:10.37,2013-03-07 21:26:00,
2013-03-07 16:31:00,29.7,18.6,30.11,NNW,338,10.4,10.4,63,0.00,OVC,,0.00,WeatherDisplay:10.37,2013-03-07 21:31:00,
2013-03-07 16:36:00,29.7,18.6,30.11,NNW,338,11.5,11.5,63,0.00,OVC,,0.00,WeatherDisplay:10.37,2013-03-07 21:36:00,
2013-03-07 16:41:00,29.6,18.6,30.11,WNW,292,8.1,8.1,63,0.00,OVC,,0.00,WeatherDisplay:10.37,2013-03-07 21:41:00,
2013-03-07 16:46:00,29.3,18.3,30.11,NW,315,9.4,9.4,63,0.00,OVC,,0.00,WeatherDisplay:10.37,2013-03-07 21:46:00,
2013-03-07 16:51:00,28.7,17.7,30.11,NW,315,12.7,12.7,63,0.00,OVC,,0.00,WeatherDisplay:10.37,2013-03-07 21:51:00,
2013-03-07 16:57:00,28.7,17.7,30.11,NW,315,9.2,9.2,63,0.00,OVC,,0.00,WeatherDisplay:10.37,2013-03-07 21:57:00,
2013-03-07 17:02:00,28.4,17.4,30.12,WNW,292,10.4,10.4,63,0.00,OVC,,0.00,WeatherDisplay:10.37,2013-03-07 22:02:00,
2013-03-07 17:07:00,28.7,17.7,30.12,NW,315,10.4,10.4,63,0.00,OVC,,0.00,WeatherDisplay:10.37,2013-03-07 22:07:00,
2013-03-07 17:12:00,28.4,17.4,30.12,NW,315,17.3,17.3,63,0.00,OVC,,0.00,WeatherDisplay:10.37,2013-03-07 22:12:00,
2013-03-07 17:17:00,28.1,22.1,30.12,NW,315,8.3,8.3,78,0.00,OVC,,0.00,WeatherDisplay:10.37,2013-03-07 22:17:00,
2013-03-07 17:22:00,28.0,22.0,30.12,NNW,338,9.2,9.2,78,0.00,OVC,,0.00,WeatherDisplay:10.37,2013-03-07 22:22:00,
2013-03-07 17:27:00,27.7,21.7,30.12,NE,45,9.2,9.2,78,0.00,OVC,,0.00,WeatherDisplay:10.37,2013-03-07 22:27:00,
2013-03-07 17:32:00,27.6,21.6,30.12,NNW,338,11.5,11.5,78,0.00,OVC,,0.00,WeatherDisplay:10.37,2013-03-07 22:32:00,
2013-03-07 17:37:00,27.4,21.5,30.12,North,360,13.8,13.8,78,0.00,OVC,,0.00,WeatherDisplay:10.37,2013-03-07 22:37:00,
2013-03-07 17:42:00,27.5,21.5,30.12,NNW,338,13.8,13.8,78,0.00,OVC,,0.00,WeatherDisplay:10.37,2013-03-07 22:42:00,
2013-03-07 17:47:00,27.4,21.4,30.12,NW,315,5.4,5.4,78,0.00,OVC,,0.00,WeatherDisplay:10.37,2013-03-07 22:47:00,
2013-03-07 17:52:00,27.3,21.4,30.12,NW,315,8.8,8.8,78,0.00,OVC,,0.00,WeatherDisplay:10.37,2013-03-07 22:52:00,
2013-03-07 17:58:00,27.4,21.4,30.12,NW,315,5.8,5.8,78,0.00,OVC,,0.00,WeatherDisplay:10.37,2013-03-07 22:58:00,
2013-03-07 18:03:00,27.3,21.3,30.13,NW,315,8.1,8.1,78,0.00,OVC,,0.00,WeatherDisplay:10.37,2013-03-07 23:03:00,
2013-03-07 18:08:00,27.3,21.3,30.13,NW,315,11.5,11.5,78,0.00,OVC,,0.00,WeatherDisplay:10.37,2013-03-07 23:08:00,
2013-03-07 18:13:00,27.1,21.2,30.13,NNW,338,10.4,10.4,78,0.00,OVC,,0.00,WeatherDisplay:10.37,2013-03-07 23:13:00,
2013-03-07 18:18:00,27.3,24.7,30.13,NNW,338,12.7,12.7,90,0.00,OVC,,0.00,WeatherDisplay:10.37,2013-03-07 23:18:00,
2013-03-07 18:23:00,27.1,24.5,30.13,NW,315,11.2,11.2,90,0.00,OVC,,0.00,WeatherDisplay:10.37,2013-03-07 23:23:00,
2013-03-07 18:28:00,27.1,24.5,30.13,WNW,292,8.1,8.1,90,0.00,OVC,,0.00,WeatherDisplay:10.37,2013-03-07 23:28:00,
2013-03-07 18:33:00,27.0,24.5,30.13,North,360,6.9,6.9,90,0.00,OVC,,0.00,WeatherDisplay:10.37,2013-03-07 23:33:00,
2013-03-07 18:38:00,27.0,24.5,30.13,NNW,338,6.9,6.9,90,0.00,OVC,,0.00,WeatherDisplay:10.37,2013-03-07 23:38:00,
2013-03-07 18:43:00,26.8,24.2,30.13,NNW,338,8.1,8.1,90,0.00,OVC,,0.00,WeatherDisplay:10.37,2013-03-07 23:43:00,
2013-03-07 18:48:00,26.7,24.2,30.13,NW,315,6.9,6.9,90,0.00,OVC,,0.00,WeatherDisplay:10.37,2013-03-07 23:48:00,
2013-03-07 18:53:00,26.7,24.2,30.13,North,360,12.7,12.7,90,0.00,OVC,,0.00,WeatherDisplay:10.37,2013-03-07 23:53:00,
2013-03-07 18:58:00,26.7,24.2,30.13,WNW,292,11.5,11.5,90,0.00,OVC,,0.00,WeatherDisplay:10.37,2013-03-07 23:58:00,
2013-03-07 19:04:00,26.9,24.3,30.14,NNW,338,6.0,6.0,90,0.00,OVC,,0.00,WeatherDisplay:10.37,2013-03-08 00:04:00,
2013-03-07 19:09:00,26.8,24.3,30.14,WNW,292,6.9,6.9,90,0.00,OVC,,0.00,WeatherDisplay:10.37,2013-03-08 00:09:00,
2013-03-07 19:14:00,26.8,24.2,30.14,North,360,10.4,10.4,90,0.00,OVC,,0.00,WeatherDisplay:10.37,2013-03-08 00:14:00,
2013-03-07 19:19:00,26.6,24.1,30.14,North,360,5.8,5.8,90,0.00,OVC,,0.00,WeatherDisplay:10.37,2013-03-08 00:19:00,
2013-03-07 19:24:00,26.7,24.1,30.14,NW,315,11.5,11.5,90,0.00,OVC,,0.00,WeatherDisplay:10.37,2013-03-08 00:24:00,
2013-03-07 19:29:00,26.7,24.1,30.14,NNE,22,9.2,9.2,90,0.00,OVC,,0.00,WeatherDisplay:10.37,2013-03-08 00:29:00,
2013-03-07 19:35:00,26.4,23.9,30.14,North,360,9.2,9.2,90,0.00,OVC,,0.00,WeatherDisplay:10.37,2013-03-08 00:35:00,
2013-03-07 19:40:00,26.6,24.1,30.14,NNW,338,11.5,11.5,90,0.00,OVC,,0.00,WeatherDisplay:10.37,2013-03-08 00:40:00,
2013-03-07 19:45:00,26.6,24.1,30.14,NW,315,4.6,4.6,90,0.00,OVC,,0.00,WeatherDisplay:10.37,2013-03-08 00:45:00,
2013-03-07 19:50:00,26.3,23.8,30.14,North,360,6.9,6.9,90,0.00,OVC,,0.00,WeatherDisplay:10.37,2013-03-08 00:50:00,
2013-03-07 19:55:00,26.3,23.8,30.14,NE,45,9.2,9.2,90,0.00,OVC,,0.00,WeatherDisplay:10.37,2013-03-08 00:55:00,
2013-03-07 20:00:00,26.3,23.8,30.14,NW,315,6.9,6.9,90,0.00,OVC,,0.00,WeatherDisplay:10.37,2013-03-08 01:00:00,
2013-03-07 20:06:00,26.2,23.6,30.14,NW,315,11.5,11.5,90,0.00,OVC,,0.00,WeatherDisplay:10.37,2013-03-08 01:06:00,
2013-03-07 20:12:00,26.3,23.8,30.14,NW,315,8.1,8.1,90,0.00,OVC,,0.00,WeatherDisplay:10.37,2013-03-08 01:12:00,
2013-03-07 20:17:00,26.3,23.8,30.14,North,360,8.1,8.1,90,0.00,OVC,,0.00,WeatherDisplay:10.37,2013-03-08 01:17:00,
2013-03-07 20:22:00,25.9,23.4,30.14,NW,315,10.4,10.4,90,0.00,OVC,,0.00,WeatherDisplay:10.37,2013-03-08 01:22:00,
2013-03-07 20:27:00,26.0,23.5,30.14,North,360,8.1,8.1,90,0.00,OVC,,0.00,WeatherDisplay:10.37,2013-03-08 01:27:00,
2013-03-07 20:32:00,25.9,23.3,30.14,West,270,11.6,11.6,90,0.00,OVC,,0.00,WeatherDisplay:10.37,2013-03-08 01:32:00,
2013-03-07 20:37:00,26.0,23.5,30.14,NW,315,13.8,13.8,90,0.00,OVC,,0.00,WeatherDisplay:10.37,2013-03-08 01:37:00,
2013-03-07 20:42:00,25.9,23.4,30.14,NW,315,8.1,8.1,90,0.00,OVC,,0.00,WeatherDisplay:10.37,2013-03-08 01:42:00,
2013-03-07 20:47:00,25.8,23.3,30.14,NW,315,8.1,8.1,90,0.00,OVC,,0.00,WeatherDisplay:10.37,2013-03-08 01:47:00,
2013-03-07 20:52:00,26.0,23.5,30.14,NNW,338,8.1,8.1,90,0.00,OVC,,0.00,WeatherDisplay:10.37,2013-03-08 01:52:00,
2013-03-07 20:57:00,25.9,23.3,30.14,NNE,22,5.0,5.0,90,0.00,OVC,,0.00,WeatherDisplay:10.37,2013-03-08 01:57:00,
2013-03-07 21:02:00,25.9,23.4,30.12,NW,315,9.2,9.2,90,0.00,OVC,,0.00,WeatherDisplay:10.37,2013-03-08 02:02:00,
2013-03-07 21:07:00,25.8,23.3,30.12,NW,315,4.6,4.6,90,0.00,OVC,,0.00,WeatherDisplay:10.37,2013-03-08 02:07:00,
2013-03-07 21:12:00,25.6,23.1,30.12,NNW,338,11.5,11.5,90,0.00,OVC,,0.00,WeatherDisplay:10.37,2013-03-08 02:12:00,
2013-03-07 21:17:00,25.8,23.2,30.12,NE,45,5.8,5.8,90,0.00,OVC,,0.00,WeatherDisplay:10.37,2013-03-08 02:17:00,
2013-03-07 21:22:00,25.7,23.2,30.12,East,90,3.5,3.5,90,0.00,OVC,,0.00,WeatherDisplay:10.37,2013-03-08 02:22:00,
2013-03-07 21:27:00,25.6,23.1,30.12,WNW,292,8.1,8.1,90,0.00,OVC,,0.00,WeatherDisplay:10.37,2013-03-08 02:27:00,
2013-03-07 21:32:00,25.8,23.3,30.12,East,90,4.6,4.6,90,0.00,OVC,,0.00,WeatherDisplay:10.37,2013-03-08 02:32:00,
2013-03-07 21:37:00,25.9,23.4,30.12,NW,315,4.6,4.6,90,0.00,OVC,,0.00,WeatherDisplay:10.37,2013-03-08 02:37:00,
2013-03-07 21:42:00,26.1,23.6,30.12,WNW,292,0.0,1.3,90,0.00,OVC,,0.00,WeatherDisplay:10.37,2013-03-08 02:42:00,
2013-03-07 21:47:00,25.9,23.3,30.12,North,360,3.5,3.5,90,0.00,OVC,,0.00,WeatherDisplay:10.37,2013-03-08 02:47:00,
2013-03-07 21:52:00,25.7,23.2,30.12,NNE,22,9.2,9.2,90,0.00,OVC,,0.00,WeatherDisplay:10.37,2013-03-08 02:52:00,
2013-03-07 21:57:00,25.7,23.2,30.12,NNW,338,9.9,9.9,90,0.00,OVC,,0.00,WeatherDisplay:10.37,2013-03-08 02:57:00,
2013-03-07 22:02:00,25.9,23.3,30.10,NNW,338,4.9,4.9,90,0.00,CLR,,0.00,WeatherDisplay:10.37,2013-03-08 03:02:00,
2013-03-07 22:07:00,25.8,23.2,30.10,NW,315,4.4,4.4,90,0.00,CLR,,0.00,WeatherDisplay:10.37,2013-03-08 03:07:00,
2013-03-07 22:12:00,25.7,23.2,30.10,NW,315,6.9,6.9,90,0.00,CLR,,0.00,WeatherDisplay:10.37,2013-03-08 03:12:00,
2013-03-07 22:17:00,25.5,23.0,30.10,NW,315,6.5,6.5,90,0.00,CLR,,0.00,WeatherDisplay:10.37,2013-03-08 03:17:00,
2013-03-07 22:22:00,25.5,23.0,30.10,NW,315,4.6,4.6,90,0.00,CLR,,0.00,WeatherDisplay:10.37,2013-03-08 03:22:00,
2013-03-07 22:27:00,25.6,23.1,30.10,ENE,68,6.9,6.9,90,0.00,CLR,,0.00,WeatherDisplay:10.37,2013-03-08 03:27:00,
2013-03-07 22:32:00,25.6,23.1,30.10,NW,315,7.6,7.6,90,0.00,CLR,,0.00,WeatherDisplay:10.37,2013-03-08 03:32:00,
2013-03-07 22:37:00,26.0,23.5,30.10,ENE,68,4.6,4.6,90,0.00,CLR,,0.00,WeatherDisplay:10.37,2013-03-08 03:37:00,
2013-03-07 22:42:00,25.9,23.4,30.10,NW,315,5.8,5.8,90,0.00,CLR,,0.00,WeatherDisplay:10.37,2013-03-08 03:42:00,
2013-03-07 22:47:00,25.8,23.3,30.10,NNW,338,5.8,5.8,90,0.00,CLR,,0.00,WeatherDisplay:10.37,2013-03-08 03:47:00,
2013-03-07 22:52:00,25.8,23.2,30.10,NW,315,3.5,3.5,90,0.00,CLR,,0.00,WeatherDisplay:10.37,2013-03-08 03:52:00,
2013-03-07 22:57:00,25.9,23.3,30.10,NW,315,0.0,0.0,90,0.00,CLR,,0.00,WeatherDisplay:10.37,2013-03-08 03:57:00,
2013-03-07 23:02:00,25.9,23.3,30.10,North,360,6.9,6.9,90,0.00,OVC,,0.00,WeatherDisplay:10.37,2013-03-08 04:02:00,
2013-03-07 23:07:00,25.8,23.3,30.10,NW,315,0.0,0.0,90,0.00,OVC,,0.00,WeatherDisplay:10.37,2013-03-08 04:07:00,
2013-03-07 23:12:00,25.9,23.3,30.10,NNW,338,4.6,4.6,90,0.00,OVC,,0.00,WeatherDisplay:10.37,2013-03-08 04:12:00,
2013-03-07 23:17:00,25.8,23.2,30.10,NW,315,6.9,6.9,90,0.00,OVC,,0.00,WeatherDisplay:10.37,2013-03-08 04:17:00,
2013-03-07 23:22:00,25.6,23.1,30.10,North,360,3.5,3.5,90,0.00,OVC,,0.00,WeatherDisplay:10.37,2013-03-08 04:22:00,
2013-03-07 23:27:00,25.5,23.0,30.10,NNW,338,5.8,5.8,90,0.00,OVC,,0.00,WeatherDisplay:10.37,2013-03-08 04:27:00,
2013-03-07 23:32:00,25.8,23.3,30.10,North,360,0.0,0.1,90,0.00,OVC,,0.00,WeatherDisplay:10.37,2013-03-08 04:32:00,
2013-03-07 23:37:00,25.6,23.1,30.10,NNW,338,1.7,1.7,90,0.00,OVC,,0.00,WeatherDisplay:10.37,2013-03-08 04:37:00,
2013-03-07 23:42:00,25.8,23.2,30.10,NW,315,5.8,5.8,90,0.00,OVC,,0.00,WeatherDisplay:10.37,2013-03-08 04:42:00,
2013-03-07 23:47:00,25.6,23.1,30.10,North,360,6.9,6.9,90,0.00,OVC,,0.00,WeatherDisplay:10.37,2013-03-08 04:47:00,
2013-03-07 23:52:00,25.5,23.0,30.10,NW,315,5.8,5.8,90,0.00,OVC,,0.00,WeatherDisplay:10.37,2013-03-08 04:52:00,
2013-03-07 23:57:00,25.4,22.8,30.10,NNW,338,5.8,5.8,90,0.00,OVC,,0.00,WeatherDisplay:10.37,2013-03-08 04:57:00,